OBJECT BQ, 64590

Orbit data source: Space-Track

You're viewing an Uncataloged Satellite

Recently launched and/or uncataloged satellites may have evolving metadata. Metadata may include but not limited to: Owner, Maufacturer, Bus, Motor, and Mission.

OBJECT BQ, 64590 is a satellite in SSO that was launched on Mon, 23 Jun 2025 UTC via an FALCON 9 launch vehicle from the Air Force Western Test Range (AFWTR). Unknown objects in Earth's orbit typically refer to objects detected orbiting the Earth but have not yet been identified or cataloged. These objects could be anything from previously untracked satellites, spent rocket stages, debris from satellite collisions, or even natural meteoroids temporarily captured by Earth's gravity.

Loading next visibility...
Identifier
64590, 2025-135BQ
Orbit
SSO
Country
Flag of TBDTBD
Related business
None
Manufacturer
Unknown
Mission
Operational Civil Technology
Bus & Motor
Unknown
Mass
Unknown
Launch date (UTC)
2025-06-23 (7 months ago)
Launch vehicle
FALCON 9
Launch site
Air Force Western Test Range (AFWTR)
Object type
Unknown
Shape & HBR
Box, 0.1 m
Radar Cross Section
0.035 m², Small (<0.1 m²)

Expand to show TLE details & history
Last TLE update: 13 hours ago

TLE from 13 hours ago
0 OBJECT BQ
1 64590U 25135BQ  26035.83072753  .00002530  00000-0  24567-3 0  9998
2 64590  97.7575 151.8577 0006467  59.8818 300.3042 14.93498713 34145
Epoch: 2026-02-04T19:56Z
TLE epoch observation values (Epoch: 2026-02-04T19:56:14.858Z)
Latitude
-0.00003°
Longitude
77.80412°
Altitude
587.809 km
Speed
7.567 km/s
True Right ascension
10h 07m 25s
True Declination
0° 00' 00"
Sunlit
Object was in full shadow at epoch
Visualization orbit readout
Latitude
Unknown
Longitude
Unknown
Altitude
Unknown
Speed
Unknown
Apparent Right ascension
Unknown
Apparent Declination
Unknown
Sunlit
N/A
Visualization observer readout
Local Sidereal Time
10:49:40
Azimuth
Unknown
Elevation
Unknown
Doppler factor
Unknown
Orbital elements
Apogee altitude
588.555 km
Perigee altitude
579.551 km
Semi-major axis
6,962.19 km
Eccentricity
0.00065
Inclination
97.7575°
RAAN
151.8577°
Arg. of periapsis
59.8818°
True anomaly
300.24019°
Mean anomaly
300.3042°
Eccentric anomaly
300.2722°
Mean motion
3.73615 °/min
Orbital period
96.36 mins
BSTAR
0.00024567
Loading maneuver chart data...
Computing Atmospheric mass density...
Loading historical data...
Loading historical data...
Loading historical data...
Loading historical data...
Loading historical data...
Loading historical data...
Loading historical data...

Documentation

Showing up to 5 results
|